This is the latest recevied weather packets stored in our database for station/object N2UFM. If no packets are shown the sender has not sent any weather packets the latest 10 day(s).
| Time | Temp. | Humidity | Pressure | Rain* | Wind** | Luminosity | Snow |
|---|---|---|---|---|---|---|---|
| 1787418490 | 25° C | 73% | 1017.8 hPa | 0 mm | - | - | - |
| 1787418190 | 25.56° C | 73% | 1017.9 hPa | 0 mm | - | - | - |
| 1787417890 | 25° C | 73% | 1018 hPa | 0 mm | - | - | - |
| 1787417590 | 25° C | 73% | 1018 hPa | 0 mm | - | - | - |
| 1787417290 | 25° C | 73% | 1018 hPa | 0 mm | - | - | - |
| 1787416990 | 25° C | 73% | 1018 hPa | 0 mm | - | - | - |
| 1787416689 | 25.56° C | 72% | 1018.1 hPa | 0 mm | - | - | - |
| 1787416389 | 25° C | 73% | 1018.2 hPa | 0 mm | - | - | - |
| 1787416089 | 24.44° C | 73% | 1018.3 hPa | 0 mm | - | - | - |
| 1787415789 | 24.44° C | 75% | 1018.2 hPa | 0 mm | - | - | - |
| 1787415489 | 23.89° C | 76% | 1018.3 hPa | 0 mm | - | - | - |
| 1787415189 | 23.89° C | 76% | 1018.4 hPa | 0 mm | - | - | - |
| 1787414888 | 23.33° C | 76% | 1018.4 hPa | 0 mm | - | - | - |
| 1787414588 | 23.33° C | 76% | 1018.4 hPa | 0 mm | - | - | - |
| 1787414288 | 23.33° C | 76% | 1018.5 hPa | 0 mm | - | - | - |
| 1787413988 | 23.33° C | 75% | 1018.6 hPa | 0 mm | - | - | - |
| 1787413688 | 23.89° C | 76% | 1018.5 hPa | 0 mm | - | - | - |
| 1787413388 | 23.89° C | 75% | 1018.6 hPa | 0 mm | - | - | - |
| 1787413087 | 23.33° C | 75% | 1018.5 hPa | 0 mm | - | - | - |
| 1787412787 | 23.33° C | 76% | 1018.6 hPa | 0 mm | - | - | - |
| 1787412487 | 23.33° C | 77% | 1018.6 hPa | 0 mm | - | - | - |
| 1787412187 | 23.33° C | 77% | 1018.8 hPa | 0 mm | - | - | - |
| 1787411587 | 23.33° C | 76% | 1018.8 hPa | 0 mm | - | - | - |
| 1787411287 | 23.89° C | 76% | 1018.8 hPa | 0 mm | - | - | - |
| 1787410987 | 23.89° C | 76% | 1018.9 hPa | 0 mm | - | - | - |
* Rain latest hour (hover to see other rain measurements)
** Current wind speed in m/s (hover to see current wind gust speed)